Weather History for Conway, SC

Change the Weather History Date:

Monday, December 3, 2012

  Actual Average Record
Temperature  
Mean Temperature 60 °F -  
Max Temperature 75 °F 63 °F 75 °F (2012)
Min Temperature 44 °F 38 °F 28 °F (2010)
Degree Days  
Heating Degree Days 6    
Growing Degree Days 10 (Base 50)    
Moisture  
Dew Point 52 °F    
Average Humidity 89    
Maximum Humidity 100    
Minimum Humidity 47    
Precipitation  
Precipitation 0.00 in - - ()
Sea Level Pressure  
Sea Level Pressure 30.30 in    
Wind  
Wind Speed 1 mph (SW)    
Max Wind Speed 8 mph    
Max Gust Speed -    
Visibility 4 miles    
Events Fog    
Averages and records for this station are not official NWS values.
T = Trace of Precipitation, MM = Missing Value Source: NWS Daily Summary

Daily Weather History Graph

Daily Weather History Graph

Search for Another Location

Airport:

Trip Planner

Search our weather history database for the weather conditions in past years. The results will help you decide how hot, cold, wet, or windy it might be!

Date:

Astronomy

Dec. 03, 2012 Rise Set
Actual Time 7:05 AM EST 5:07 PM EST
Civil Twilight 6:38 AM EST 5:34 PM EST
Nautical Twilight 6:07 AM EST 6:05 PM EST
Astronomical Twilight 5:36 AM EST 6:36 PM EST
Moon 9:45 PM EST (12/3) 10:34 AM EST (12/3)
Length of Visible Light 10h 56m
Length of Day
10h 02m
Waning Gibbous, 78% of the Moon is Illuminated
Dec 3
Waning Gibbous
Dec 6
Last Quarter
Dec 13
New
Dec 20
First Quarter
Dec 28
Full

Hourly Weather History & Observations

Time (EST) Temp. Dew Point Humidity Pressure Visibility Wind Dir Wind Speed Gust Speed Precip Events Conditions
12:15 AM 50.0 °F 50.0 °F 100% 30.30 in 7.0 mi Calm Calm - N/A   Overcast
12:35 AM 48.2 °F 48.2 °F 100% 30.30 in 7.0 mi Calm Calm - N/A   Scattered Clouds
12:55 AM 48.2 °F 48.2 °F 100% 30.30 in 7.0 mi Calm Calm - N/A   Scattered Clouds
1:15 AM 46.4 °F 46.4 °F 100% 30.30 in 5.0 mi Calm Calm - N/A   Mostly Cloudy
1:35 AM 48.2 °F 48.2 °F 100% 30.30 in 7.0 mi Calm Calm - N/A   Mostly Cloudy
1:55 AM 46.4 °F 46.4 °F 100% 30.30 in 5.0 mi Calm Calm - N/A   Mostly Cloudy
2:15 AM 46.4 °F 46.4 °F 100% 30.30 in 5.0 mi Calm Calm - N/A   Overcast
2:35 AM 46.4 °F 46.4 °F 100% 30.30 in 7.0 mi Calm Calm - N/A   Overcast
2:55 AM 46.4 °F 46.4 °F 100% 30.30 in 0.5 mi Calm Calm - N/A Fog Fog
3:15 AM 46.4 °F 46.4 °F 100% 30.30 in 2.0 mi Calm Calm - N/A   Overcast
3:35 AM 46.4 °F 46.4 °F 100% 30.30 in 0.5 mi Calm Calm - N/A Fog Fog
3:55 AM 46.4 °F 46.4 °F 100% 30.30 in 1.2 mi Calm Calm - N/A   Overcast
4:15 AM 44.6 °F 44.6 °F 100% 30.30 in 0.5 mi Calm Calm - N/A Fog Fog
4:35 AM 44.6 °F 44.6 °F 100% 30.29 in 0.2 mi Calm Calm - N/A Fog Fog
4:55 AM 44.6 °F 44.6 °F 100% 30.30 in 0.5 mi Calm Calm - N/A Fog Fog
5:15 AM 44.6 °F 44.6 °F 100% 30.30 in 0.2 mi Calm Calm - N/A Fog Fog
5:35 AM 44.6 °F 44.6 °F 100% 30.30 in 0.5 mi Calm Calm - N/A Fog Fog
5:55 AM 44.6 °F 44.6 °F 100% 30.30 in 0.5 mi Calm Calm - N/A Fog Fog
6:15 AM 44.6 °F 44.6 °F 100% 30.31 in 0.2 mi Calm Calm - N/A Fog Fog
6:35 AM 44.6 °F 44.6 °F 100% 30.31 in 0.2 mi Calm Calm - N/A Fog Fog
6:55 AM 44.6 °F 44.6 °F 100% 30.32 in 0.2 mi Calm Calm - N/A Fog Fog
7:15 AM 44.6 °F 44.6 °F 100% 30.33 in 0.2 mi Calm Calm - N/A Fog Fog
7:35 AM 44.6 °F 44.6 °F 100% 30.33 in 0.2 mi Calm Calm - N/A Fog Fog
7:55 AM 46.4 °F 46.4 °F 100% 30.33 in 0.2 mi Calm Calm - N/A Fog Fog
8:15 AM 48.2 °F 48.2 °F 100% 30.33 in 0.5 mi Calm Calm - N/A Fog Fog
8:35 AM 50.0 °F 50.0 °F 100% 30.33 in 0.8 mi Calm Calm - N/A   Overcast
8:55 AM 53.6 °F 53.6 °F 100% 30.33 in 2.5 mi Calm Calm - N/A   Overcast
9:15 AM 55.4 °F 55.4 °F 100% 30.34 in 1.8 mi Calm Calm - N/A   Overcast
9:35 AM 57.2 °F 57.2 °F 100% 30.34 in 5.0 mi Calm Calm - N/A   Scattered Clouds
10:15 AM 64.4 °F 60.8 °F 88% 30.34 in 7.0 mi West 3.5 mph - N/A   Clear
10:35 AM 64.4 °F 60.8 °F 88% 30.34 in 5.0 mi West 4.6 mph - N/A   Haze
10:55 AM 68.0 °F 60.8 °F 78% 30.33 in 7.0 mi West 4.6 mph - N/A   Clear
11:15 AM 68.0 °F 59.0 °F 73% 30.32 in 7.0 mi Calm Calm - N/A   Clear
11:35 AM 69.8 °F 59.0 °F 68% 30.31 in 7.0 mi West 3.5 mph - N/A   Clear
11:55 AM 71.6 °F 60.8 °F 69% 30.30 in 5.0 mi SW 4.6 mph - N/A   Haze
12:15 PM 71.6 °F 59.0 °F 64% 30.29 in 7.0 mi WSW 4.6 mph - N/A   Clear
12:35 PM 73.4 °F 59.0 °F 61% 30.28 in 7.0 mi Calm Calm - N/A   Clear
12:55 PM 75.2 °F 57.2 °F 53% 30.27 in 7.0 mi SSW 8.1 mph - N/A   Scattered Clouds
1:15 PM 73.4 °F 55.4 °F 53% 30.27 in 7.0 mi SW 4.6 mph - N/A   Scattered Clouds
1:35 PM 71.6 °F 55.4 °F 57% 30.26 in 7.0 mi SW 3.5 mph - N/A   Scattered Clouds
2:15 PM 73.4 °F 55.4 °F 53% 30.25 in 7.0 mi Calm Calm - N/A   Clear
2:35 PM 73.4 °F 53.6 °F 50% 30.25 in 7.0 mi SSW 3.5 mph - N/A   Scattered Clouds
2:55 PM 75.2 °F 53.6 °F 47% 30.25 in 5.0 mi SW 5.8 mph - N/A   Haze
3:15 PM 71.6 °F 53.6 °F 53% 30.25 in 7.0 mi Calm Calm - N/A   Scattered Clouds
3:35 PM 73.4 °F 55.4 °F 53% 30.25 in 7.0 mi Calm Calm - N/A   Scattered Clouds
3:55 PM 73.4 °F 55.4 °F 53% 30.25 in 7.0 mi South 3.5 mph - N/A   Scattered Clouds
4:15 PM 71.6 °F 55.4 °F 57% 30.25 in 7.0 mi SSW 3.5 mph - N/A   Clear
4:35 PM 69.8 °F 57.2 °F 64% 30.26 in 7.0 mi Calm Calm - N/A   Scattered Clouds
4:55 PM 64.4 °F 59.0 °F 83% 30.27 in 7.0 mi Calm Calm - N/A   Clear
5:15 PM 62.6 °F 59.0 °F 88% 30.27 in 7.0 mi SSE 3.5 mph - N/A   Clear
5:35 PM 62.6 °F 59.0 °F 88% 30.27 in 7.0 mi Calm Calm - N/A   Clear
5:55 PM 62.6 °F 59.0 °F 88% 30.28 in 7.0 mi Calm Calm - N/A   Clear
6:15 PM 59.0 °F 59.0 °F 100% 30.29 in 7.0 mi Calm Calm - N/A   Clear
6:35 PM 57.2 °F 57.2 °F 100% 30.29 in 7.0 mi Calm Calm - N/A   Clear
6:55 PM 55.4 °F 55.4 °F 100% 30.29 in 7.0 mi Calm Calm - N/A   Clear
7:15 PM 55.4 °F 55.4 °F 100% 30.29 in 5.0 mi Calm Calm - N/A   Clear
7:35 PM 53.6 °F 53.6 °F 100% 30.30 in 7.0 mi Calm Calm - N/A   Clear
7:55 PM 53.6 °F 53.6 °F 100% 30.30 in 1.0 mi Calm Calm - N/A   Mist
8:15 PM 53.6 °F 53.6 °F 100% 30.30 in 3.0 mi Calm Calm - N/A   Clear
8:35 PM 51.8 °F 51.8 °F 100% 30.30 in 5.0 mi Calm Calm - N/A   Clear
8:55 PM 51.8 °F 51.8 °F 100% 30.30 in 7.0 mi Calm Calm - N/A   Clear
9:15 PM 51.8 °F 51.8 °F 100% 30.30 in 5.0 mi Calm Calm - N/A   Clear
9:35 PM 51.8 °F 51.8 °F 100% 30.30 in 1.8 mi Calm Calm - N/A   Mist
9:55 PM 51.8 °F 51.8 °F 100% 30.30 in 0.8 mi Calm Calm - N/A   Mist
10:15 PM 50.0 °F 50.0 °F 100% 30.30 in 5.0 mi Calm Calm - N/A   Clear
10:35 PM 50.0 °F 50.0 °F 100% 30.30 in 1.5 mi Calm Calm - N/A   Scattered Clouds
10:55 PM 50.0 °F 50.0 °F 100% 30.30 in 1.0 mi Calm Calm - N/A   Mostly Cloudy
11:15 PM 50.0 °F 50.0 °F 100% 30.30 in 7.0 mi Calm Calm - N/A   Clear
11:35 PM 50.0 °F 50.0 °F 100% 30.31 in 0.8 mi Calm Calm - N/A   Mist
11:55 PM 50.0 °F 50.0 °F 100% 30.30 in 5.0 mi Calm Calm - N/A   Scattered Clouds